TimeEST,TemperatureF,Dew PointF,Humidity,Sea Level PressureIn,VisibilityMPH,Wind Direction,Wind SpeedMPH,Gust SpeedMPH,PrecipitationIn,Events,Conditions,WindDirDegrees,DateUTC
12:15 AM,37.4,30.9,77,29.37,10.0,SW,24.2,36.8,N/A,,Overcast,220,2014-02-21 05:15:00
12:32 AM,36.7,30.6,78,29.38,10.0,SW,18.4,28.8,N/A,,Overcast,220,2014-02-21 05:32:00
1:00 AM,37.4,30.2,75,29.38,10.0,SW,23.0,35.7,N/A,,Overcast,220,2014-02-21 06:00:00
1:19 AM,37.4,30.2,75,29.38,10.0,SW,19.6,33.4,N/A,,Overcast,220,2014-02-21 06:19:00
1:40 AM,37.4,30.2,75,29.38,10.0,SW,20.7,34.5,N/A,,Overcast,220,2014-02-21 06:40:00
2:00 AM,35.6,30.2,81,29.38,10.0,SSW,17.3,31.1,N/A,,Overcast,210,2014-02-21 07:00:00
2:19 AM,35.6,28.4,75,29.37,10.0,SSW,20.7,35.7,N/A,,Overcast,200,2014-02-21 07:19:00
2:40 AM,35.6,28.4,75,29.39,10.0,SW,16.1,31.1,N/A,,Overcast,220,2014-02-21 07:40:00
3:00 AM,35.6,28.4,75,29.39,10.0,SW,16.1,26.5,N/A,,Overcast,220,2014-02-21 08:00:00
3:20 AM,37.4,28.4,70,29.39,10.0,SSW,21.9,31.1,N/A,,Overcast,210,2014-02-21 08:20:00
3:40 AM,37.4,28.4,70,29.39,10.0,SSW,20.7,31.1,N/A,,Overcast,210,2014-02-21 08:40:00
4:00 AM,37.4,28.4,70,29.39,10.0,SSW,23.0,33.4,N/A,,Overcast,210,2014-02-21 09:00:00
4:18 AM,35.6,28.4,75,29.40,10.0,SW,23.0,34.5,N/A,,Overcast,220,2014-02-21 09:18:00
4:38 AM,35.6,28.4,75,29.40,10.0,SW,21.9,32.2,N/A,,Overcast,220,2014-02-21 09:38:00
4:58 AM,35.6,28.4,75,29.40,10.0,SW,26.5,35.7,N/A,,Overcast,220,2014-02-21 09:58:00
5:20 AM,35.6,28.4,75,29.41,10.0,SW,21.9,32.2,N/A,,Overcast,220,2014-02-21 10:20:00
5:42 AM,35.6,30.2,81,29.41,10.0,SW,23.0,34.5,N/A,,Overcast,230,2014-02-21 10:42:00
6:00 AM,33.8,30.2,87,29.42,10.0,SW,20.7,32.2,N/A,Snow,Light Snow,220,2014-02-21 11:00:00
6:22 AM,33.8,30.2,87,29.43,10.0,SW,23.0,35.7,N/A,,Overcast,220,2014-02-21 11:22:00
6:38 AM,33.8,28.4,81,29.44,10.0,SW,18.4,33.4,N/A,,Overcast,230,2014-02-21 11:38:00
7:00 AM,33.8,28.4,81,29.44,10.0,SW,21.9,33.4,N/A,,Overcast,220,2014-02-21 12:00:00
7:38 AM,32.0,28.4,87,29.45,10.0,WSW,23.0,40.3,N/A,,Overcast,240,2014-02-21 12:38:00
7:58 AM,32.0,28.4,87,29.45,10.0,SW,20.7,31.1,N/A,Snow,Light Snow,220,2014-02-21 12:58:00
8:21 AM,32.0,26.6,80,29.47,10.0,SW,23.0,40.3,N/A,,Overcast,230,2014-02-21 13:21:00
8:38 AM,32.0,24.8,75,29.48,10.0,SW,23.0,41.4,N/A,,Overcast,230,2014-02-21 13:38:00
8:58 AM,30.2,24.8,80,29.48,10.0,WSW,28.8,43.7,N/A,,Overcast,240,2014-02-21 13:58:00
9:14 AM,30.7,24.3,77,29.49,4.0,WSW,25.3,44.9,N/A,,Haze,250,2014-02-21 14:14:00
9:15 AM,30.7,24.1,76,29.49,4.0,WSW,19.6,44.9,N/A,,Haze,250,2014-02-21 14:15:00
9:35 AM,30.2,23.4,76,29.49,4.0,SW,25.3,36.8,N/A,,Haze,230,2014-02-21 14:35:00
9:55 AM,30.2,24.3,79,29.50,2.5,SW,21.9,44.9,N/A,,Haze,230,2014-02-21 14:55:00
10:15 AM,29.8,22.8,75,29.50,7.0,WSW,21.9,35.7,N/A,,Overcast,240,2014-02-21 15:15:00
10:35 AM,30.0,22.6,74,29.50,10.0,WSW,26.5,44.9,N/A,,Overcast,240,2014-02-21 15:35:00
10:55 AM,30.2,23.9,77,29.50,10.0,SW,26.5,38.0,N/A,,Overcast,230,2014-02-21 15:55:00
11:15 AM,30.2,22.1,72,29.52,10.0,SW,25.3,36.8,N/A,,Overcast,230,2014-02-21 16:15:00
11:35 AM,30.2,22.3,72,29.52,10.0,WSW,25.3,38.0,N/A,,Overcast,240,2014-02-21 16:35:00
11:55 AM,30.6,23.2,74,29.53,10.0,WSW,29.9,43.7,N/A,,Overcast,240,2014-02-21 16:55:00
12:15 PM,30.7,21.4,68,29.54,10.0,WSW,20.7,47.2,N/A,,Overcast,240,2014-02-21 17:15:00
12:35 PM,31.1,21.9,69,29.54,10.0,WSW,25.3,44.9,N/A,,Overcast,240,2014-02-21 17:35:00
12:55 PM,30.6,20.1,65,29.55,10.0,WSW,31.1,39.1,N/A,,Mostly Cloudy,240,2014-02-21 17:55:00
1:15 PM,30.2,20.8,68,29.56,10.0,SW,20.7,35.7,N/A,,Overcast,230,2014-02-21 18:15:00
1:35 PM,30.0,20.1,67,29.57,10.0,WSW,19.6,40.3,N/A,,Overcast,240,2014-02-21 18:35:00
1:55 PM,30.6,19.9,65,29.57,10.0,WSW,26.5,38.0,N/A,,Overcast,240,2014-02-21 18:55:00
2:15 PM,31.1,20.5,65,29.58,10.0,WSW,24.2,35.7,N/A,,Overcast,240,2014-02-21 19:15:00
2:35 PM,31.6,20.7,64,29.58,10.0,WSW,26.5,35.7,N/A,,Overcast,240,2014-02-21 19:35:00
2:55 PM,31.6,20.3,63,29.59,10.0,WSW,25.3,35.7,N/A,,Mostly Cloudy,240,2014-02-21 19:55:00
3:15 PM,32.0,20.3,62,29.60,10.0,WSW,25.3,39.1,N/A,,Mostly Cloudy,240,2014-02-21 20:15:00
3:35 PM,32.0,20.3,62,29.61,10.0,WSW,24.2,39.1,N/A,,Scattered Clouds,240,2014-02-21 20:35:00
3:55 PM,32.0,20.5,63,29.62,10.0,WSW,19.6,32.2,N/A,,Scattered Clouds,250,2014-02-21 20:55:00
4:15 PM,32.0,20.7,63,29.63,10.0,WSW,20.7,32.2,N/A,,Clear,240,2014-02-21 21:15:00
4:35 PM,32.0,20.1,62,29.65,10.0,WSW,18.4,28.8,N/A,,Clear,240,2014-02-21 21:35:00
4:55 PM,32.0,20.1,62,29.65,10.0,WSW,19.6,27.6,N/A,,Clear,240,2014-02-21 21:55:00
5:15 PM,32.0,18.7,58,29.67,10.0,WSW,18.4,29.9,N/A,,Clear,240,2014-02-21 22:15:00
5:35 PM,32.0,18.3,57,29.68,10.0,WSW,19.6,32.2,N/A,,Clear,240,2014-02-21 22:35:00
5:55 PM,31.8,18.3,57,29.68,10.0,WSW,18.4,29.9,N/A,,Clear,240,2014-02-21 22:55:00
6:15 PM,31.6,18.3,58,29.68,10.0,WSW,18.4,31.1,N/A,,Clear,240,2014-02-21 23:15:00
6:35 PM,31.1,17.6,57,29.69,10.0,WSW,16.1,25.3,N/A,,Clear,240,2014-02-21 23:35:00
6:55 PM,31.5,16.7,54,29.70,10.0,WSW,17.3,27.6,N/A,,Clear,240,2014-02-21 23:55:00
7:15 PM,31.3,17.4,57,29.71,10.0,WSW,20.7,27.6,N/A,,Clear,240,2014-02-22 00:15:00
7:35 PM,31.1,18.0,58,29.72,10.0,WSW,17.3,26.5,N/A,,Clear,240,2014-02-22 00:35:00
7:55 PM,31.5,19.4,61,29.72,10.0,WSW,18.4,24.2,N/A,,Clear,240,2014-02-22 00:55:00
8:15 PM,31.6,19.4,61,29.73,10.0,WSW,17.3,25.3,N/A,,Clear,240,2014-02-22 01:15:00
8:35 PM,32.0,21.0,64,29.73,10.0,WSW,16.1,29.9,N/A,,Clear,240,2014-02-22 01:35:00
8:55 PM,32.0,22.1,67,29.74,10.0,WSW,17.3,25.3,N/A,,Scattered Clouds,240,2014-02-22 01:55:00
9:15 PM,32.0,23.7,71,29.74,10.0,SW,18.4,26.5,N/A,,Scattered Clouds,230,2014-02-22 02:15:00
9:35 PM,32.4,24.3,72,29.75,10.0,WSW,18.4,27.6,N/A,,Clear,240,2014-02-22 02:35:00
9:55 PM,32.4,23.9,71,29.75,10.0,WSW,13.8,24.2,N/A,,Clear,240,2014-02-22 02:55:00
10:15 PM,32.4,24.3,72,29.76,10.0,SW,13.8,21.9,N/A,,Clear,230,2014-02-22 03:15:00
10:35 PM,32.4,24.4,73,29.76,10.0,WSW,11.5,20.7,N/A,,Clear,240,2014-02-22 03:35:00
10:55 PM,32.4,24.6,73,29.77,10.0,WSW,11.5,19.6,N/A,,Mostly Cloudy,250,2014-02-22 03:55:00
11:15 PM,32.4,24.8,74,29.76,10.0,WSW,12.7,20.7,N/A,,Overcast,240,2014-02-22 04:15:00
11:35 PM,32.2,23.2,69,29.76,10.0,WSW,13.8,21.9,N/A,,Overcast,240,2014-02-22 04:35:00
11:55 PM,32.0,22.6,68,29.77,10.0,WSW,12.7,23.0,N/A,,Overcast,240,2014-02-22 04:55:00